Location: Landeleau
(48.2273°N, 3.7285°W)
Time: 22:52:04
(UTC+00:00)

Nadezhda 1 Rocket - Pass Details

Date: 30 March 2020
Orbit: 940 x 1006 km, 83.0° (Epoch: 26 May)

Event Time Altitude Azimuth Distance (km) Brightness Sun altitude
Exits shadow 20:29:51 22° 150° (SSE) 2,049 5.2 -17.7°
Maximum altitude 20:33:40 45° 90° (E) 1,341 4.3 -18.3°
Drops below altitude 10° 20:39:42 10° 20° (NNE) 2,784 6.5 -19.1°
Sets 20:42:19 0° 14° (NNE) 3,731 7.3 -19.5°
